Location: Brahman Valley
(40.6513°N, 111.8855°W)
Time: 09:49:12
(UTC+00:00)

Tiros 1 despin weight - Pass Details

Date: 17 May 2021
Orbit: 594 x 641 km, 48.2° (Epoch: 22 June)

Event Time Altitude Azimuth Distance (km) Brightness Sun altitude
Rises 03:55:29 0° 271° (W) 2,920 ? -12.9°
Reaches altitude 10° 03:57:56 10° 279° (W) 2,019 ? -13.3°
Maximum altitude 04:02:16 37° 348° (NNW) 991 ? -13.9°
Drops below altitude 10° 04:06:39 10° 56° (NE) 2,033 ? -14.5°
Sets 04:09:08 0° 65° (ENE) 2,943 ? -14.8°
